| time (UTC) | temp F | wind direction | speed MPH | gust MPH | rain 1hr in | rain 24hr in | rain mn in | humidity % | barometer mb |
| 20260509181803 | 71 | 0.0 | 0.0 | 0.00 | 0.02 | 0.02 | 57 | 1010.2 | |
| 20260509181301 | 71 | 0.0 | 0.0 | 0.00 | 0.02 | 0.02 | 57 | 1010.4 | |
| 20260509180758 | 71 | 0.0 | 0.0 | 0.00 | 0.02 | 0.02 | 61 | 1010.2 | |
| 20260509180254 | 71 | 0.0 | 0.0 | 0.00 | 0.02 | 0.02 | 59 | 1010.2 | |
| 20260509175750 | 71 | 0.0 | 0.0 | 0.00 | 0.02 | 0.02 | 60 | 1010.1 | |
| 20260509175247 | 70 | 0.0 | 0.0 | 0.00 | 0.02 | 0.02 | 61 | 1010.3 | |
| 20260509174743 | 70 | 0.0 | 0.0 | 0.00 | 0.02 | 0.02 | 61 | 1010.3 | |
| 20260509174238 | 70 | 0.0 | 0.0 | 0.00 | 0.02 | 0.02 | 62 | 1010.4 | |
| 20260509173735 | 70 | 0.0 | 0.0 | 0.00 | 0.02 | 0.02 | 63 | 1010.7 | |
| 20260509173230 | 70 | 0.0 | 0.0 | 0.00 | 0.02 | 0.02 | 63 | 1010.4 | |
| 20260509172727 | 69 | 0.0 | 0.0 | 0.00 | 0.02 | 0.02 | 65 | 1010.5 | |
| 20260509172223 | 69 | 0.0 | 0.0 | 0.00 | 0.02 | 0.02 | 64 | 1010.5 | |
| 20260509171718 | 69 | 0.0 | 0.0 | 0.00 | 0.02 | 0.02 | 64 | 1010.5 | |
| 20260509171215 | 69 | 0.0 | 0.0 | 0.00 | 0.02 | 0.02 | 66 | 1010.8 | |
| 20260509170712 | 69 | 0.0 | 0.0 | 0.00 | 0.02 | 0.02 | 66 | 1010.6 | |
| 20260509170208 | 68 | 0.0 | 0.0 | 0.00 | 0.02 | 0.02 | 66 | 1010.5 | |
| 20260509165707 | 68 | 0.0 | 0.0 | 0.00 | 0.02 | 0.02 | 66 | 1010.8 | |
| 20260509165202 | 68 | 0.0 | 0.0 | 0.00 | 0.02 | 0.02 | 66 | 1010.2 | |
| 20260509164658 | 68 | 0.0 | 0.0 | 0.00 | 0.02 | 0.02 | 66 | 1010.7 | |
| 20260509164154 | 68 | 0.0 | 0.0 | 0.00 | 0.02 | 0.02 | 67 | 1010.7 | |
| 20260509163652 | 68 | 0.0 | 0.0 | 0.00 | 0.02 | 0.02 | 67 | 1010.7 | |
| 20260509163148 | 68 | 0.0 | 0.0 | 0.00 | 0.02 | 0.02 | 66 | 1010.8 | |
| 20260509162645 | 68 | 0.0 | 0.0 | 0.00 | 0.02 | 0.02 | 69 | 1010.8 | |
| 20260509162141 | 68 | 0.0 | 0.0 | 0.00 | 0.02 | 0.02 | 67 | 1010.8 | |
| 20260509161637 | 67 | 0.0 | 0.0 | 0.00 | 0.02 | 0.02 | 69 | 1010.7 | |
| 20260509161132 | 67 | 0.0 | 0.0 | 0.00 | 0.02 | 0.02 | 69 | 1010.6 | |
| 20260509160628 | 67 | 0.0 | 0.0 | 0.00 | 0.02 | 0.02 | 69 | 1010.8 | |
| 20260509160124 | 67 | 0.0 | 0.0 | 0.00 | 0.02 | 0.02 | 68 | 1010.7 | |
| 20260509155620 | 66 | 0.0 | 0.0 | 0.00 | 0.02 | 0.02 | 69 | 1010.5 | |
| 20260509155116 | 67 | 0.0 | 0.0 | 0.00 | 0.02 | 0.02 | 68 | 1010.4 | |
| 20260509154612 | 66 | 0.0 | 0.0 | 0.00 | 0.02 | 0.02 | 70 | 1010.4 | |
| 20260509154110 | 66 | 0.0 | 0.0 | 0.00 | 0.02 | 0.02 | 69 | 1010.1 | |
| 20260509153607 | 66 | 0.0 | 0.0 | 0.00 | 0.02 | 0.02 | 70 | 1010.2 | |
| 20260509153104 | 66 | 0.0 | 0.0 | 0.00 | 0.02 | 0.02 | 70 | 1010.2 | |
| 20260509152559 | 66 | 0.0 | 0.0 | 0.00 | 0.02 | 0.02 | 70 | 1010.1 | |
| 20260509152057 | 66 | 0.0 | 0.0 | 0.00 | 0.02 | 0.02 | 71 | 1009.9 | |
| 20260509151553 | 65 | 0.0 | 0.0 | 0.00 | 0.02 | 0.02 | 70 | 1009.9 | |
| 20260509151051 | 65 | 0.0 | 0.0 | 0.00 | 0.02 | 0.02 | 72 | 1010.0 | |
| 20260509150548 | 64 | 0.0 | 0.0 | 0.00 | 0.02 | 0.02 | 72 | 1009.8 | |
| 20260509150047 | 64 | 0.0 | 0.0 | 0.00 | 0.02 | 0.02 | 71 | 1009.8 | |
| 20260509145542 | 64 | 0.0 | 0.0 | 0.00 | 0.02 | 0.02 | 73 | 1010.1 | |
| 20260509145037 | 64 | 0.0 | 0.0 | 0.00 | 0.02 | 0.02 | 75 | 1010.0 | |
| 20260509144534 | 64 | 0.0 | 0.0 | 0.00 | 0.02 | 0.02 | 75 | 1009.9 | |
| 20260509144032 | 63 | 0.0 | 0.0 | 0.00 | 0.02 | 0.02 | 75 | 1009.8 | |
| 20260509143528 | 63 | 0.0 | 0.0 | 0.00 | 0.02 | 0.02 | 76 | 1009.9 | |
| 20260509143026 | 63 | 0.0 | 0.0 | 0.00 | 0.02 | 0.02 | 76 | 1009.8 | |
| 20260509142521 | 62 | 0.0 | 0.0 | 0.00 | 0.02 | 0.02 | 78 | 1009.7 | |
| 20260509142017 | 62 | 0.0 | 0.0 | 0.00 | 0.02 | 0.02 | 77 | 1009.8 | |
| 20260509141514 | 62 | 0.0 | 0.0 | 0.00 | 0.02 | 0.02 | 79 | 1009.6 | |
| 20260509141011 | 62 | 0.0 | 0.0 | 0.00 | 0.02 | 0.02 | 80 | 1009.8 | |
| 20260509140507 | 61 | 0.0 | 0.0 | 0.00 | 0.02 | 0.02 | 80 | 1009.8 | |
| 20260509140006 | 61 | 0.0 | 0.0 | 0.00 | 0.02 | 0.02 | 80 | 1009.9 | |
| 20260509135502 | 61 | 0.0 | 0.0 | 0.00 | 0.02 | 0.02 | 80 | 1009.7 | |
| 20260509135000 | 60 | 0.0 | 0.0 | 0.00 | 0.02 | 0.02 | 80 | 1009.9 | |
| 20260509134457 | 60 | 0.0 | 0.0 | 0.00 | 0.02 | 0.02 | 81 | 1009.6 | |
| 20260509133955 | 60 | 0.0 | 0.0 | 0.00 | 0.02 | 0.02 | 82 | 1009.6 | |
| 20260509133451 | 60 | 0.0 | 0.0 | 0.00 | 0.02 | 0.02 | 83 | 1009.7 | |
| 20260509132949 | 59 | 0.0 | 0.0 | 0.00 | 0.02 | 0.02 | 84 | 1009.7 | |
| 20260509132447 | 59 | 0.0 | 0.0 | 0.00 | 0.02 | 0.02 | 84 | 1009.8 | |
| 20260509131944 | 59 | 0.0 | 0.0 | 0.00 | 0.02 | 0.02 | 84 | 1009.7 | |
| 20260509131441 | 59 | 0.0 | 0.0 | 0.00 | 0.02 | 0.02 | 85 | 1009.6 | |
| 20260509130937 | 58 | 0.0 | 0.0 | 0.00 | 0.02 | 0.02 | 85 | 1009.5 | |
| 20260509130433 | 58 | 0.0 | 0.0 | 0.00 | 0.02 | 0.02 | 85 | 1009.6 | |
| 20260509125930 | 58 | 0.0 | 0.0 | 0.00 | 0.02 | 0.02 | 85 | 1009.5 | |
| 20260509125427 | 58 | 0.0 | 0.0 | 0.00 | 0.02 | 0.02 | 85 | 1009.4 | |
| 20260509124923 | 58 | 0.0 | 0.0 | 0.00 | 0.02 | 0.02 | 85 | 1009.5 | |
| 20260509124420 | 58 | 0.0 | 0.0 | 0.00 | 0.02 | 0.02 | 85 | 1009.6 | |
| 20260509123917 | 58 | 0.0 | 0.0 | 0.00 | 0.02 | 0.02 | 85 | 1009.7 | |
| 20260509123414 | 58 | 0.0 | 0.0 | 0.00 | 0.02 | 0.02 | 85 | 1009.3 | |
| 20260509122910 | 58 | 0.0 | 0.0 | 0.00 | 0.02 | 0.02 | 85 | 1009.4 | |
| 20260509122407 | 57 | 0.0 | 0.0 | 0.00 | 0.02 | 0.02 | 85 | 1009.4 | |
| 20260509121904 | 57 | 0.0 | 0.0 | 0.00 | 0.02 | 0.02 | 85 | 1009.3 | |
| 20260509121401 | 57 | 0.0 | 0.0 | 0.00 | 0.02 | 0.02 | 85 | 1009.4 | |
| 20260509120859 | 57 | 0.0 | 0.0 | 0.00 | 0.02 | 0.02 | 85 | 1009.3 | |
| 20260509120356 | 57 | 0.0 | 0.0 | 0.00 | 0.02 | 0.02 | 85 | 1009.2 | |
| 20260509115854 | 57 | 0.0 | 0.0 | 0.00 | 0.02 | 0.02 | 85 | 1009.1 | |
| 20260509115351 | 57 | 0.0 | 0.0 | 0.00 | 0.02 | 0.02 | 85 | 1009.0 | |
| 20260509114849 | 56 | 0.0 | 0.0 | 0.00 | 0.02 | 0.02 | 84 | 1009.1 | |
| 20260509114348 | 56 | 0.0 | 0.0 | 0.00 | 0.02 | 0.02 | 84 | 1009.0 | |
| 20260509113847 | 56 | 0.0 | 0.0 | 0.00 | 0.02 | 0.02 | 84 | 1008.9 | |
| 20260509113343 | 56 | 0.0 | 0.0 | 0.00 | 0.02 | 0.02 | 84 | 1008.9 | |
| 20260509112840 | 56 | 0.0 | 0.0 | 0.00 | 0.02 | 0.02 | 84 | 1008.9 | |
| 20260509112337 | 56 | 0.0 | 0.0 | 0.00 | 0.02 | 0.02 | 84 | 1009.0 | |
| 20260509111834 | 56 | 0.0 | 0.0 | 0.00 | 0.02 | 0.02 | 84 | 1009.1 | |
| 20260509111331 | 56 | 0.0 | 0.0 | 0.00 | 0.02 | 0.02 | 84 | 1008.6 | |
| 20260509110829 | 56 | 0.0 | 0.0 | 0.00 | 0.02 | 0.02 | 84 | 1008.6 | |
| 20260509110325 | 57 | 0.0 | 0.0 | 0.00 | 0.02 | 0.02 | 84 | 1008.3 | |
| 20260509105823 | 57 | 0.0 | 0.0 | 0.00 | 0.02 | 0.02 | 84 | 1008.2 | |
| 20260509105321 | 57 | 0.0 | 0.0 | 0.00 | 0.02 | 0.02 | 84 | 1008.3 | |
| 20260509104817 | 57 | 0.0 | 0.0 | 0.00 | 0.02 | 0.02 | 84 | 1008.0 | |
| 20260509104314 | 57 | 0.0 | 0.0 | 0.00 | 0.02 | 0.02 | 84 | 1007.7 | |
| 20260509103812 | 57 | 0.0 | 0.0 | 0.00 | 0.02 | 0.02 | 84 | 1007.9 | |
| 20260509103309 | 57 | 0.0 | 0.0 | 0.00 | 0.02 | 0.02 | 83 | 1007.8 | |
| 20260509102808 | 57 | 0.0 | 0.0 | 0.00 | 0.02 | 0.02 | 83 | 1007.9 | |
| 20260509102306 | 57 | 0.0 | 0.0 | 0.00 | 0.02 | 0.02 | 84 | 1007.5 | |
| 20260509101800 | 58 | 0.0 | 0.0 | 0.00 | 0.02 | 0.02 | 84 | 1007.8 | |
| 20260509101256 | 58 | 0.0 | 0.0 | 0.00 | 0.02 | 0.02 | 84 | 1007.8 | |
| 20260509100754 | 58 | 0.0 | 0.0 | 0.00 | 0.02 | 0.02 | 84 | 1007.8 | |
| 20260509100252 | 58 | 0.0 | 0.0 | 0.00 | 0.02 | 0.02 | 83 | 1008.0 | |
| 20260509095748 | 58 | 0.0 | 0.0 | 0.00 | 0.02 | 0.02 | 84 | 1008.0 | |
| 20260509095245 | 58 | 0.0 | 0.0 | 0.00 | 0.02 | 0.02 | 84 | 1008.5 | |
| 20260509094742 | 58 | 0.0 | 0.0 | 0.00 | 0.02 | 0.02 | 84 | 1008.4 | |
| 20260509094239 | 58 | 0.0 | 0.0 | 0.00 | 0.02 | 0.02 | 85 | 1008.3 | |
| 20260509093737 | 58 | 0.0 | 0.0 | 0.00 | 0.02 | 0.02 | 84 | 1008.4 | |
| 20260509093234 | 58 | 0.0 | 0.0 | 0.00 | 0.02 | 0.02 | 84 | 1008.3 | |
| 20260509092732 | 58 | 0.0 | 0.0 | 0.00 | 0.02 | 0.02 | 84 | 1008.2 | |
| 20260509092230 | 59 | 0.0 | 0.0 | 0.02 | 0.02 | 0.02 | 84 | 1008.3 | |
| 20260509091728 | 59 | 0.0 | 0.0 | 0.02 | 0.02 | 0.02 | 84 | 1008.2 | |
| 20260509091223 | 59 | 0.0 | 0.0 | 0.02 | 0.02 | 0.02 | 81 | 1008.1 | |
| 20260509090721 | 59 | 0.0 | 0.0 | 0.07 | 0.02 | 0.02 | 82 | 1008.5 | |
| 20260509090218 | 59 | 0.0 | 0.0 | 0.07 | 0.01 | 0.01 | 80 | 1008.2 | |
| 20260509085716 | 59 | 0.0 | 0.0 | 0.02 | 0.00 | 0.00 | 81 | 1008.0 | |
| 20260509085213 | 59 | 0.0 | 0.0 | 0.00 | 0.00 | 0.00 | 81 | 1007.7 | |
| 20260509084710 | 59 | 0.0 | 0.0 | 0.00 | 0.00 | 0.00 | 80 | 1007.9 | |
| 20260509084206 | 59 | 0.0 | 0.0 | 0.00 | 0.00 | 0.00 | 81 | 1008.0 | |
| 20260509083704 | 59 | 0.0 | 0.0 | 0.00 | 0.00 | 0.00 | 81 | 1008.1 | |
| 20260509083201 | 59 | 0.0 | 0.0 | 0.00 | 0.00 | 0.00 | 82 | 1008.1 | |
| 20260509082658 | 59 | 0.0 | 0.0 | 0.00 | 0.00 | 0.00 | 82 | 1008.3 | |
| 20260509082154 | 59 | 0.0 | 0.0 | 0.00 | 0.00 | 0.00 | 82 | 1008.4 | |
| 20260509081651 | 60 | 0.0 | 0.0 | 0.00 | 0.00 | 0.00 | 82 | 1008.6 | |
| 20260509081148 | 60 | 0.0 | 0.0 | 0.00 | 0.00 | 0.00 | 82 | 1008.8 | |
| 20260509080646 | 60 | 0.0 | 0.0 | 0.00 | 0.00 | 0.00 | 82 | 1008.9 | |
| 20260509080144 | 60 | 0.0 | 0.0 | 0.00 | 0.00 | 0.00 | 82 | 1008.9 | |
| 20260509075642 | 60 | 0.0 | 0.0 | 0.00 | 0.00 | 0.00 | 81 | 1009.2 | |
| 20260509075140 | 60 | 0.0 | 0.0 | 0.00 | 0.00 | 0.00 | 80 | 1008.9 | |
| 20260509074636 | 60 | 0.0 | 0.0 | 0.00 | 0.00 | 0.00 | 80 | 1009.1 | |
| 20260509074132 | 60 | 0.0 | 0.0 | 0.00 | 0.00 | 0.00 | 80 | 1008.8 | |
| 20260509073630 | 60 | 0.0 | 0.0 | 0.00 | 0.00 | 0.00 | 80 | 1008.9 | |
| 20260509073126 | 60 | 0.0 | 0.0 | 0.00 | 0.00 | 0.00 | 78 | 1009.0 | |
| 20260509072623 | 61 | 0.0 | 0.0 | 0.00 | 0.00 | 0.00 | 77 | 1009.1 | |
| 20260509072120 | 61 | 0.0 | 0.0 | 0.00 | 0.00 | 0.00 | 77 | 1008.9 | |
| 20260509071616 | 61 | 0.0 | 0.0 | 0.00 | 0.00 | 0.00 | 75 | 1009.0 | |
| 20260509071114 | 62 | 0.0 | 0.0 | 0.00 | 0.00 | 0.00 | 72 | 1008.8 | |
| 20260509070611 | 62 | 0.0 | 0.0 | 0.00 | 0.00 | 0.00 | 70 | 1008.8 | |
| 20260509070107 | 63 | 0.0 | 0.0 | 0.00 | 0.00 | 0.00 | 68 | 1008.7 | |
| 20260509065602 | 63 | 0.0 | 0.0 | 0.00 | 0.00 | 0.00 | 64 | 1008.7 | |
| 20260509065058 | 64 | 0.0 | 0.0 | 0.00 | 0.00 | 0.00 | 62 | 1009.1 | |
| 20260509064556 | 64 | 0.0 | 0.0 | 0.00 | 0.00 | 0.00 | 58 | 1008.9 | |
| 20260509064054 | 64 | 0.0 | 0.0 | 0.00 | 0.00 | 0.00 | 56 | 1009.1 | |
| 20260509063550 | 64 | 0.0 | 0.0 | 0.00 | 0.00 | 0.00 | 57 | 1009.1 | |
| 20260509063047 | 64 | 0.0 | 0.0 | 0.00 | 0.00 | 0.00 | 56 | 1009.1 | |
| 20260509062544 | 64 | 0.0 | 0.0 | 0.00 | 0.00 | 0.00 | 56 | 1009.0 | |
| 20260509062042 | 64 | 0.0 | 0.0 | 0.00 | 0.00 | 0.00 | 55 | 1008.5 | |
| 20260509061538 | 64 | 0.0 | 0.0 | 0.00 | 0.00 | 0.00 | 55 | 1008.5 | |
| 20260509061036 | 64 | 0.0 | 0.0 | 0.00 | 0.00 | 0.00 | 55 | 1008.5 | |
| 20260509060533 | 64 | 0.0 | 0.0 | 0.00 | 0.00 | 0.00 | 54 | 1008.4 | |
| 20260509060029 | 65 | 0.0 | 0.0 | 0.00 | 0.00 | 0.00 | 54 | 1008.3 | |
| 20260509055524 | 65 | 0.0 | 0.0 | 0.00 | 0.00 | 0.00 | 54 | 1008.6 | |
| 20260509055021 | 65 | 0.0 | 0.0 | 0.00 | 0.00 | 0.00 | 53 | 1008.6 | |
| 20260509054517 | 65 | 0.0 | 0.0 | 0.00 | 0.00 | 0.00 | 53 | 1008.7 | |
| 20260509054016 | 65 | 0.0 | 0.0 | 0.00 | 0.00 | 0.00 | 53 | 1008.5 | |
| 20260509053514 | 65 | 0.0 | 0.0 | 0.00 | 0.00 | 0.00 | 53 | 1009.0 | |
| 20260509053010 | 65 | 0.0 | 0.0 | 0.00 | 0.00 | 0.00 | 53 | 1008.7 | |
| 20260509052508 | 65 | 0.0 | 0.0 | 0.00 | 0.00 | 0.00 | 53 | 1008.7 | |
| 20260509052006 | 65 | 0.0 | 0.0 | 0.00 | 0.00 | 0.00 | 52 | 1008.7 | |
| 20260509051504 | 65 | 0.0 | 0.0 | 0.00 | 0.00 | 0.00 | 52 | 1008.8 | |
| 20260509051000 | 65 | 0.0 | 0.0 | 0.00 | 0.00 | 0.00 | 52 | 1008.8 | |
| 20260509050457 | 65 | 0.0 | 0.0 | 0.00 | 0.00 | 0.00 | 52 | 1008.9 | |
| 20260509045953 | 65 | 0.0 | 0.0 | 0.00 | 0.00 | 0.00 | 52 | 1008.8 | |
| 20260509045451 | 65 | 0.0 | 0.0 | 0.00 | 0.00 | 0.00 | 52 | 1008.7 | |
| 20260509044948 | 65 | 0.0 | 0.0 | 0.00 | 0.00 | 0.00 | 52 | 1009.0 | |
| 20260509044445 | 65 | 0.0 | 0.0 | 0.00 | 0.00 | 0.00 | 52 | 1009.0 | |
| 20260509043942 | 65 | 0.0 | 0.0 | 0.00 | 0.00 | 0.00 | 52 | 1008.9 | |
| 20260509043438 | 65 | 0.0 | 0.0 | 0.00 | 0.00 | 0.00 | 52 | 1008.9 | |
| 20260509042933 | 65 | 0.0 | 0.0 | 0.00 | 0.00 | 0.00 | 52 | 1009.0 | |
| 20260509042431 | 65 | 0.0 | 0.0 | 0.00 | 0.00 | 0.00 | 52 | 1009.0 | |
| 20260509041927 | 65 | 0.0 | 0.0 | 0.00 | 0.00 | 0.00 | 52 | 1009.0 | |
| 20260509041424 | 65 | 0.0 | 0.0 | 0.00 | 0.00 | 0.00 | 52 | 1008.9 | |
| 20260509040922 | 65 | 0.0 | 0.0 | 0.00 | 0.00 | 0.00 | 52 | 1008.8 | |
| 20260509040420 | 65 | 0.0 | 0.0 | 0.00 | 0.00 | 0.00 | 53 | 1009.0 | |
| 20260509035916 | 65 | 0.0 | 0.0 | 0.00 | 0.00 | 0.00 | 53 | 1009.1 | |
| 20260509035414 | 65 | 0.0 | 0.0 | 0.00 | 0.00 | 0.00 | 53 | 1009.1 | |
| 20260509034910 | 65 | 0.0 | 0.0 | 0.00 | 0.00 | 0.00 | 53 | 1009.0 | |
| 20260509034408 | 65 | 0.0 | 0.0 | 0.00 | 0.00 | 0.00 | 52 | 1009.1 | |
| 20260509033905 | 65 | 0.0 | 0.0 | 0.00 | 0.00 | 0.00 | 52 | 1009.1 | |
| 20260509033402 | 65 | 0.0 | 0.0 | 0.00 | 0.00 | 0.00 | 52 | 1009.2 | |
| 20260509032858 | 65 | 0.0 | 0.0 | 0.00 | 0.00 | 0.00 | 52 | 1009.2 | |
| 20260509032355 | 65 | 0.0 | 0.0 | 0.00 | 0.00 | 0.00 | 51 | 1009.2 | |
| 20260509031853 | 66 | 0.0 | 0.0 | 0.00 | 0.00 | 0.00 | 51 | 1009.2 | |
| 20260509031350 | 66 | 0.0 | 0.0 | 0.00 | 0.00 | 0.00 | 51 | 1009.3 | |
| 20260509030848 | 66 | 0.0 | 0.0 | 0.00 | 0.00 | 0.00 | 51 | 1009.1 | |
| 20260509030346 | 66 | 0.0 | 0.0 | 0.00 | 0.00 | 0.00 | 50 | 1009.1 | |
| 20260509025843 | 66 | 0.0 | 0.0 | 0.00 | 0.00 | 0.00 | 50 | 1009.3 | |
| 20260509025338 | 66 | 0.0 | 0.0 | 0.00 | 0.00 | 0.00 | 50 | 1009.2 | |
| 20260509024833 | 66 | 0.0 | 0.0 | 0.00 | 0.00 | 0.00 | 50 | 1009.2 | |
| 20260509024330 | 66 | 0.0 | 0.0 | 0.00 | 0.00 | 0.00 | 49 | 1009.3 | |
| 20260509023827 | 67 | 0.0 | 0.0 | 0.00 | 0.00 | 0.00 | 49 | 1009.3 | |
| 20260509023324 | 67 | 0.0 | 0.0 | 0.00 | 0.00 | 0.00 | 49 | 1009.3 | |
| 20260509022821 | 67 | 0.0 | 0.0 | 0.00 | 0.00 | 0.00 | 48 | 1009.4 | |
| 20260509022318 | 67 | 0.0 | 0.0 | 0.00 | 0.00 | 0.00 | 48 | 1009.5 | |
| 20260509021815 | 67 | 0.0 | 0.0 | 0.00 | 0.00 | 0.00 | 48 | 1009.3 | |
| 20260509021312 | 67 | 0.0 | 0.0 | 0.00 | 0.00 | 0.00 | 48 | 1009.3 | |
| 20260509020809 | 67 | 0.0 | 0.0 | 0.00 | 0.00 | 0.00 | 48 | 1009.5 | |
| 20260509020308 | 67 | 0.0 | 0.0 | 0.00 | 0.00 | 0.00 | 48 | 1009.5 | |
| 20260509015805 | 68 | 0.0 | 0.0 | 0.00 | 0.00 | 0.00 | 48 | 1009.4 | |
| 20260509015306 | 68 | 0.0 | 0.0 | 0.00 | 0.00 | 0.00 | 48 | 1009.3 | |
| 20260509014759 | 68 | 0.0 | 0.0 | 0.00 | 0.00 | 0.00 | 48 | 1009.3 | |
| 20260509014256 | 68 | 0.0 | 0.0 | 0.00 | 0.00 | 0.00 | 48 | 1009.4 | |
| 20260509013753 | 68 | 0.0 | 0.0 | 0.00 | 0.00 | 0.00 | 47 | 1009.5 | |
| 20260509013248 | 68 | 0.0 | 0.0 | 0.00 | 0.00 | 0.00 | 48 | 1009.1 | |
| 20260509012745 | 68 | 0.0 | 0.0 | 0.00 | 0.00 | 0.00 | 47 | 1009.3 | |
| 20260509012242 | 68 | 0.0 | 0.0 | 0.00 | 0.00 | 0.00 | 47 | 1009.2 | |
| 20260509011739 | 68 | 0.0 | 0.0 | 0.00 | 0.00 | 0.00 | 47 | 1009.3 | |
| 20260509011237 | 68 | 0.0 | 0.0 | 0.00 | 0.00 | 0.00 | 48 | 1009.3 | |
| 20260509010734 | 68 | 0.0 | 0.0 | 0.00 | 0.00 | 0.00 | 48 | 1009.2 | |
| 20260509010231 | 68 | 0.0 | 0.0 | 0.00 | 0.00 | 0.00 | 47 | 1009.2 | |
| 20260509005729 | 68 | 0.0 | 0.0 | 0.00 | 0.00 | 0.00 | 47 | 1009.3 | |
| 20260509005226 | 69 | 0.0 | 0.0 | 0.00 | 0.00 | 0.00 | 47 | 1009.3 | |
| 20260509004725 | 69 | 0.0 | 0.0 | 0.00 | 0.00 | 0.00 | 48 | 1009.3 | |
| 20260509004223 | 69 | 0.0 | 0.0 | 0.00 | 0.00 | 0.00 | 47 | 1009.5 | |
| 20260509003721 | 69 | 0.0 | 0.0 | 0.00 | 0.00 | 0.00 | 47 | 1009.5 | |
| 20260509003219 | 69 | 0.0 | 0.0 | 0.00 | 0.00 | 0.00 | 47 | 1009.5 | |
| 20260509002715 | 69 | 0.0 | 0.0 | 0.00 | 0.00 | 0.00 | 46 | 1009.9 | |
| 20260509002213 | 69 | 0.0 | 0.0 | 0.00 | 0.00 | 0.00 | 46 | 1009.5 | |
| 20260509001711 | 69 | 0.0 | 0.0 | 0.00 | 0.00 | 0.00 | 46 | 1009.7 | |
| 20260509001207 | 70 | 0.0 | 0.0 | 0.00 | 0.00 | 0.00 | 46 | 1009.6 | |
| 20260509000705 | 70 | 0.0 | 0.0 | 0.00 | 0.00 | 0.00 | 46 | 1009.6 | |
| 20260509000204 | 70 | 0.0 | 0.0 | 0.00 | 0.00 | 0.00 | 45 | 1009.8 | |
| 20260508235659 | 70 | 0.0 | 0.0 | 0.00 | 0.00 | 0.00 | 45 | 1010.0 | |
| 20260508235155 | 70 | 0.0 | 0.0 | 0.00 | 0.00 | 0.00 | 44 | 1010.1 | |
| 20260508234653 | 70 | 0.0 | 0.0 | 0.00 | 0.00 | 0.00 | 44 | 1009.7 | |
| 20260508234149 | 71 | 0.0 | 0.0 | 0.00 | 0.00 | 0.00 | 44 | 1009.9 | |
| 20260508233648 | 71 | 0.0 | 0.0 | 0.00 | 0.00 | 0.00 | 44 | 1010.2 | |
| 20260508233145 | 71 | 0.0 | 0.0 | 0.00 | 0.00 | 0.00 | 43 | 1010.1 | |
| 20260508232643 | 71 | 0.0 | 0.0 | 0.00 | 0.00 | 0.00 | 43 | 1010.2 | |
| 20260508232139 | 71 | 0.0 | 0.0 | 0.00 | 0.00 | 0.00 | 42 | 1010.0 | |
| 20260508231637 | 71 | 0.0 | 0.0 | 0.00 | 0.00 | 0.00 | 43 | 1010.0 | |
| 20260508231134 | 71 | 0.0 | 0.0 | 0.00 | 0.00 | 0.00 | 43 | 1009.9 | |
| 20260508230630 | 71 | 0.0 | 0.0 | 0.00 | 0.00 | 0.00 | 42 | 1010.0 | |
| 20260508230127 | 71 | 0.0 | 0.0 | 0.00 | 0.00 | 0.00 | 41 | 1010.1 | |
| 20260508225625 | 71 | 0.0 | 0.0 | 0.00 | 0.00 | 0.00 | 41 | 1010.0 | |
| 20260508225121 | 71 | 0.0 | 0.0 | 0.00 | 0.00 | 0.00 | 42 | 1010.2 | |
| 20260508224619 | 71 | 0.0 | 0.0 | 0.00 | 0.00 | 0.00 | 41 | 1010.3 | |
| 20260508224116 | 71 | 0.0 | 0.0 | 0.00 | 0.00 | 0.00 | 41 | 1010.0 | |
| 20260508223614 | 71 | 0.0 | 0.0 | 0.00 | 0.00 | 0.00 | 41 | 1010.0 | |
| 20260508223111 | 72 | 0.0 | 0.0 | 0.00 | 0.00 | 0.00 | 40 | 1010.1 | |
| 20260508222608 | 72 | 0.0 | 0.0 | 0.00 | 0.00 | 0.00 | 41 | 1009.9 | |
| 20260508222105 | 72 | 0.0 | 0.0 | 0.00 | 0.00 | 0.00 | 40 | 1010.0 | |
| 20260508221601 | 72 | 0.0 | 0.0 | 0.00 | 0.00 | 0.00 | 41 | 1010.0 | |
| 20260508221057 | 72 | 0.0 | 0.0 | 0.00 | 0.00 | 0.00 | 41 | 1009.9 | |
| 20260508220554 | 72 | 0.0 | 0.0 | 0.00 | 0.00 | 0.00 | 41 | 1009.9 | |
| 20260508220050 | 72 | 0.0 | 0.0 | 0.00 | 0.00 | 0.00 | 40 | 1009.8 | |
| 20260508215547 | 72 | 0.0 | 0.0 | 0.00 | 0.00 | 0.00 | 41 | 1009.9 | |
| 20260508215044 | 72 | 0.0 | 0.0 | 0.00 | 0.00 | 0.00 | 41 | 1009.9 | |
| 20260508214541 | 72 | 0.0 | 0.0 | 0.00 | 0.00 | 0.00 | 40 | 1010.1 | |
| 20260508214037 | 72 | 0.0 | 0.0 | 0.00 | 0.00 | 0.00 | 40 | 1010.1 | |
| 20260508213535 | 72 | 0.0 | 0.0 | 0.00 | 0.00 | 0.00 | 40 | 1010.1 | |
| 20260508213030 | 72 | 0.0 | 0.0 | 0.00 | 0.00 | 0.00 | 40 | 1010.2 | |
| 20260508212528 | 73 | 0.0 | 0.0 | 0.00 | 0.00 | 0.00 | 40 | 1010.0 | |
| 20260508212024 | 73 | 0.0 | 0.0 | 0.00 | 0.00 | 0.00 | 41 | 1010.1 | |
| 20260508211519 | 73 | 0.0 | 0.0 | 0.00 | 0.00 | 0.00 | 40 | 1010.3 | |
| 20260508211016 | 73 | 0.0 | 0.0 | 0.00 | 0.00 | 0.00 | 40 | 1010.1 | |
| 20260508210512 | 73 | 0.0 | 0.0 | 0.00 | 0.00 | 0.00 | 40 | 1010.2 | |
| 20260508210010 | 73 | 0.0 | 0.0 | 0.00 | 0.00 | 0.00 | 41 | 1010.3 | |
| 20260508205507 | 73 | 0.0 | 0.0 | 0.00 | 0.00 | 0.00 | 40 | 1010.4 | |
| 20260508205003 | 73 | 0.0 | 0.0 | 0.00 | 0.00 | 0.00 | 40 | 1010.5 | |
| 20260508204500 | 73 | 0.0 | 0.0 | 0.00 | 0.00 | 0.00 | 40 | 1010.6 | |
| 20260508203955 | 72 | 0.0 | 0.0 | 0.00 | 0.00 | 0.00 | 40 | 1010.5 | |
| 20260508203452 | 72 | 0.0 | 0.0 | 0.00 | 0.00 | 0.00 | 39 | 1010.7 | |
| 20260508202947 | 72 | 0.0 | 0.0 | 0.00 | 0.00 | 0.00 | 41 | 1010.7 | |
| 20260508202445 | 72 | 0.0 | 0.0 | 0.00 | 0.00 | 0.00 | 40 | 1010.7 | |
| 20260508201942 | 73 | 0.0 | 0.0 | 0.00 | 0.00 | 0.00 | 40 | 1011.0 | |
| 20260508201438 | 73 | 0.0 | 0.0 | 0.00 | 0.00 | 0.00 | 40 | 1010.9 | |
| 20260508200935 | 73 | 0.0 | 0.0 | 0.00 | 0.00 | 0.00 | 40 | 1010.9 | |
| 20260508200433 | 73 | 0.0 | 0.0 | 0.00 | 0.00 | 0.00 | 41 | 1011.1 | |
| 20260508195927 | 73 | 0.0 | 0.0 | 0.00 | 0.00 | 0.00 | 41 | 1011.1 | |
| 20260508195425 | 73 | 0.0 | 0.0 | 0.00 | 0.00 | 0.00 | 41 | 1011.3 | |
| 20260508194920 | 72 | 0.0 | 0.0 | 0.00 | 0.00 | 0.00 | 41 | 1011.2 | |
| 20260508194418 | 72 | 0.0 | 0.0 | 0.00 | 0.00 | 0.00 | 41 | 1011.2 | |
| 20260508193915 | 72 | 0.0 | 0.0 | 0.00 | 0.00 | 0.00 | 39 | 1011.4 | |
| 20260508193412 | 72 | 0.0 | 0.0 | 0.00 | 0.00 | 0.00 | 40 | 1011.6 | |
| 20260508192908 | 72 | 0.0 | 0.0 | 0.00 | 0.00 | 0.00 | 42 | 1011.7 | |
| 20260508192405 | 72 | 0.0 | 0.0 | 0.00 | 0.00 | 0.00 | 41 | 1012.0 | |
| 20260508191902 | 72 | 0.0 | 0.0 | 0.00 | 0.00 | 0.00 | 42 | 1012.2 | |
| 20260508191400 | 72 | 0.0 | 0.0 | 0.00 | 0.00 | 0.00 | 41 | 1012.2 | |
| 20260508190856 | 72 | 0.0 | 0.0 | 0.00 | 0.00 | 0.00 | 41 | 1012.3 | |
| 20260508190353 | 72 | 0.0 | 0.0 | 0.00 | 0.00 | 0.00 | 40 | 1012.3 | |
| 20260508185849 | 72 | 0.0 | 0.0 | 0.00 | 0.00 | 0.00 | 41 | 1012.4 | |
| 20260508185347 | 71 | 0.0 | 0.0 | 0.00 | 0.00 | 0.00 | 43 | 1012.1 | |
| 20260508184844 | 71 | 0.0 | 0.0 | 0.00 | 0.00 | 0.00 | 42 | 1012.4 | |
| 20260508184341 | 71 | 0.0 | 0.0 | 0.00 | 0.00 | 0.00 | 41 | 1012.6 | |
| 20260508183838 | 71 | 0.0 | 0.0 | 0.00 | 0.00 | 0.00 | 41 | 1012.5 | |
| 20260508183334 | 71 | 0.0 | 0.0 | 0.00 | 0.00 | 0.00 | 44 | 1012.5 | |
| 20260508182830 | 71 | 0.0 | 0.0 | 0.00 | 0.00 | 0.00 | 42 | 1012.7 | |
| 20260508182327 | 71 | 0.0 | 0.0 | 0.00 | 0.00 | 0.00 | 42 | 1012.8 |